OBJECT AL, 68450

Orbit data source: Space-Track

You're viewing an Uncataloged Satellite

Recently launched and/or uncataloged satellites may have evolving metadata. Metadata may include but not limited to: Owner, Maufacturer, Bus, Motor, and Mission.

OBJECT AL, 68450 is a satellite in SSO that was launched on Mon, 30 Mar 2026 UTC via an FALCON 9 launch vehicle from the Air Force Western Test Range (AFWTR). Unknown objects in Earth's orbit typically refer to objects detected orbiting the Earth but have not yet been identified or cataloged. These objects could be anything from previously untracked satellites, spent rocket stages, debris from satellite collisions, or even natural meteoroids temporarily captured by Earth's gravity.

Loading next visibility...
Identifier
68450, 2026-067AL
Orbit
SSO
Country
Flag of TBDTBD
Related business
None
Manufacturer
Unknown
Mission
Operational spacecraft
Bus & Motor
Unknown
Mass
Unknown
Launch date (UTC)
2026-03-30 (1 month ago)
Launch vehicle
FALCON 9
Launch site
Air Force Western Test Range (AFWTR)
Object type
Unknown
Shape & HBR
Unknown shape, 1.1 m
Radar Cross Section
RCS unknown

Expand to show TLE details & history
Last TLE update: 11 hours ago

TLE from 11 hours ago
0 OBJECT AL
1 68450U 26067AL  26127.14068126  .00006053  00000-0  29865-3 0  9997
2 68450  97.4532  86.2210 0003291 125.7714 234.3827 15.18267642  5710
Epoch: 2026-05-07T03:22Z
TLE epoch observation values (Epoch: 2026-05-07T03:22:34.860Z)
Latitude
0.00001°
Longitude
170.58466°
Altitude
515.484 km
Speed
7.605 km/s
True Right ascension
05h 44m 53s
True Declination
0° 00' 00"
Sunlit
Object was in daylight at epoch
Visualization orbit readout
Latitude
Unknown
Longitude
Unknown
Altitude
Unknown
Speed
Unknown
Apparent Right ascension
Unknown
Apparent Declination
Unknown
Sunlit
N/A
Visualization observer readout
Local Sidereal Time
22:04:42
Azimuth
Unknown
Elevation
Unknown
Doppler factor
Unknown
Orbital elements
Apogee altitude
510.312 km
Perigee altitude
505.78 km
Semi-major axis
6,886.183 km
Eccentricity
0.00033
Inclination
97.4532°
RAAN
86.221°
Arg. of periapsis
125.7714°
True anomaly
234.35205°
Mean anomaly
234.3827°
Eccentric anomaly
234.36737°
Mean motion
3.79818 °/min
Orbital period
94.78 mins
BSTAR
0.00029865
Loading maneuver chart data...
Computing Atmospheric mass density...
Loading historical data...
Loading historical data...
Loading historical data...
Loading historical data...
Loading historical data...
Loading historical data...
Loading historical data...

Documentation

Showing up to 5 results
|